Flag for Montserrat Weather past 2 weeks in Brades, Montserrat

Now
81 °F

Partly cloudy.


Feels Like: 86 °F
Forecast: 80 / 84 °F
Wind: 17 mph from East

Location: Vc Bird International Antigua Airport

Current Time: Jul 25, 2014 at 6:07:43 AM

Latest Report: Jul 25, 2014 at 5:00 AM


Visibility: N/A

Pressure: 30.01 "Hg

Humidity: 84%

Dew point: 75 °F

Location of BradesLocation

Historic Weather in Brades — Graph

°F

Brades temperature yesterday

Maximum temperature yesterday: 86 °F (at 11:00 AM)
Minimum temperature yesterday: 81 °F (at 12:00 AM)
Average temperature yesterday: 83 °F

Past Weeks' High & Low Weather Summary

 TemperatureHumidityPressure
High86 °F (Jul 10, 11:00 AM)94% (Jul 14, 6:00 PM)30.12 "Hg (Jul 14, 6:00 PM)
Low75 °F (Jul 14, 6:00 PM)55% (Jul 21, 3:00 PM)29.98 "Hg (Jul 24, 4:00 AM)
Average82 °F72%30.06 "Hg
* Reported Jul 10 5:00 AM — Jul 25 5:00 AM, Brades, Weather by CustomWeather, © 2014

Note: Actual official high and low records may vary slightly from our data, if they occured in-between our weather recording intervals... More about our weather records

Advertising

Brades weather history for previous 24 hours

 ConditionsComfort  
Time TempWeatherWind HumidityBarometerVisibility
5:00 AM
Jul 25
81 °FPartly cloudy.17 mph84%30.01 "HgN/A
4:00 AM82 °FPartly cloudy.16 mph79%30.01 "HgN/A
2:00 AM81 °FPassing clouds.15 mph79%30.04 "HgN/A
1:00 AM81 °FPassing clouds.13 mph84%30.04 "HgN/A
12:00 AM81 °FPassing clouds.13 mph79%30.07 "HgN/A
11:00 PM
Jul 24
81 °FPartly cloudy.17 mph74%30.07 "HgN/A
10:00 PM82 °FPassing clouds.14 mph74%30.07 "HgN/A
9:00 PM81 °FPassing clouds.14 mph79%30.07 "HgN/A
8:00 PM82 °FPassing clouds.14 mph74%30.04 "HgN/A
7:00 PM82 °FPassing clouds.14 mph74%30.04 "HgN/A
6:00 PM82 °FScattered clouds.14 mph74%30.01 "HgN/A
5:00 PM84 °FScattered clouds.15 mph70%30.01 "HgN/A
4:00 PM84 °FSprinkles. Scattered clouds.13 mph70%30.01 "HgN/A
3:00 PM84 °FSprinkles. Broken clouds.12 mph70%30.01 "HgN/A
2:00 PM86 °FScattered clouds.15 mph66%30.01 "HgN/A
1:00 PM86 °FPartly sunny.15 mph62%30.04 "HgN/A
12:00 PM86 °FPartly sunny.15 mph66%30.04 "HgN/A
11:00 AM86 °FPartly sunny.17 mph62%30.07 "HgN/A
10:00 AM84 °FPartly sunny.15 mph70%30.07 "HgN/A
9:00 AM84 °FBroken clouds.18 mph70%30.04 "HgN/A
8:00 AM84 °FPartly sunny.16 mph70%30.04 "HgN/A
7:00 AM82 °FPartly sunny.14 mph70%30.01 "HgN/A
6:00 AM81 °FPartly sunny.14 mph79%30.01 "HgN/A
Weather by CustomWeather, © 2014

See weather overviewHow to use our weather pages